RH
88 93 97 98 98 99 99 100 100 99 99 100 99 100 100 100 98 98 98 98 98 99 98 92 93 95 97 98 93 94 84 70 69 77 86 88 80 72 78 75 68 84 94
91 96 100 99 98 98 97 96 96 96 98 99 100 99 100 100 100 99 98 99 98 99 99 98 98 99 100 95 83 90 91 77 69 72 69 73 75 84 67 81 68 63 71
90 93 95 96 94 92 93 91 90 91 91 92 96 98 99 99 100 99 99 100 96 90 98 98 98 100 98 100 94 91 91 87 81 68 79 83 84 76 92 85 82 70 76
91 91 92 93 90 90 89 88 86 85 85 87 88 91 93 94 96 97 96 97 98 98 95 95 99 99 98 100 98 99 98 92 83 70 62 73 79 84 76 88 93 89 80
87 87 89 90 89 87 84 84 83 82 82 83 84 84 87 87 88 88 89 90 92 93 95 97 98 100 100 99 99 99 100 93 89 74 70 80 84 78 81 85 93 74 67
82 85 86 86 86 83 81 82 82 80 80 82 83 83 84 84 84 84 84 83 86 90 90 90 92 93 95 99 99 93 97 94 92 84 81 85 85 91 84 75 66 66 65
76 78 82 81 81 78 78 79 81 81 80 80 81 81 82 83 83 82 84 84 87 90 89 89 89 88 87 88 92 91 94 94 90 90 92 90 88 86 89 85 74 73 71
70 69 73 77 75 76 75 76 79 79 78 77 77 77 80 81 81 81 84 84 86 85 85 85 85 82 80 83 83 82 92 95 90 94 100 96 100 100 90 83 80 69 73
59 59 60 69 71 72 73 74 76 76 75 74 74 74 73 80 76 77 81 82 80 81 80 80 77 73 66 71 70 67 86 92 89 87 91 90 100 99 99 95 87 80 65
40 50 50 58 62 64 67 71 72 70 70 69 67 63 31 41 67 74 77 77 76 76 77 77 72 68 29 20 37 24 55 66 81 76 78 83 92 98 100 99 100 95 92
30 28 34 31 42 53 58 62 60 60 31 19 25 16 16 16 20 42 73 73 70 70 71 73 69 43 10 10 10 12 23 36 49 60 61 74 87 93 96 99 99 99 100
33 30 27 26 27 28 24 22 18 19 18 18 18 17 16 16 20 20 33 32 51 23 27 29 29 13 10 9 9 10 13 17 24 33 40 54 71 82 88 91 96 98 99
33 32 29 28 28 25 24 23 20 22 22 22 22 21 19 20 20 20 20 20 19 21 19 18 16 16 16 14 12 11 12 12 14 16 18 32 59 70 74 78 82 88 95
36 33 30 29 27 25 23 23 20 21 23 23 24 24 21 20 21 24 26 27 23 24 24 27 25 20 17 15 15 14 14 15 13 11 11 11 36 60 67 70 70 74 83
36 33 30 29 28 26 24 26 26 27 30 30 30 28 25 21 21 23 25 26 27 28 29 30 25 24 21 19 18 15 14 13 14 14 12 11 18 41 60 65 70 70 72
36 33 31 30 27 25 26 27 28 31 33 33 34 34 32 27 26 26 26 26 28 30 31 31 31 30 28 24 19 16 16 16 16 16 16 15 24 36 56 68 71 72 74
35 33 32 29 28 26 28 31 32 35 34 35 37 38 37 34 34 34 32 32 34 33 33 32 31 32 29 25 19 17 23 22 22 22 31 38 42 53 76 81 92 91 86
35 34 32 30 30 27 30 32 32 34 34 35 37 37 36 38 38 39 38 42 42 41 41 38 39 37 35 34 23 24 28 37 43 47 39 43 48 46 45 80 92 92 93
34 34 32 31 31 28 29 31 30 32 33 32 36 36 39 40 40 39 39 43 46 48 49 50 49 50 54 41 32 26 35 42 50 40 36 36 38 35 35 39 53 55 76
36 34 32 32 30 28 30 32 32 33 34 34 34 36 38 40 39 38 39 42 45 47 50 51 52 57 66 51 44 32 47 48 40 35 36 37 32 26 27 27 26 28 31
37 35 35 35 32 30 32 34 34 31 33 33 34 35 39 39 40 38 40 43 47 49 52 55 55 59 66 58 56 45 38 59 47 48 40 44 29 32 31 27 29 26 22
40 35 36 35 32 31 30 29 27 29 31 31 35 38 39 40 39 41 42 46 49 50 53 56 60 63 66 64 65 68 66 57 49 41 46 39 35 40 40 43 34 28 28
46 40 36 34 33 32 30 29 30 32 34 36 38 40 40 40 41 42 46 49 50 52 55 58 62 63 66 66 65 64 63 72 70 57 54 48 45 38 48 45 42 36 35
48 37 35 35 35 34 31 29 29 30 32 35 38 40 40 42 44 48 50 50 52 54 55 58 60 61 62 68 67 70 68 71 78 76 62 56 62 54 55 44 41 40 37
48 40 36 35 37 36 33 31 30 31 34 38 41 41 43 45 48 50 51 54 54 56 57 59 61 62 63 67 70 73 73 73 72 82 80 68 68 60 59 61 55 44 41
47 40 36 37 38 37 35 34 32 33 36 39 42 43 45 48 52 54 56 55 58 61 63 64 65 66 66 65 67 70 73 76 73 78 85 76 76 68 68 63 59 56 52
Wind_Speed
15 14 13 9 9 10 11 13 15 15 16 16 15 16 17 19 19 18 21 20 21 24 19 12 9 8 9 10 12 11 12 12 12 13 13 13 11 11 11 11 11 13 13
19 16 12 11 10 11 12 15 16 14 14 15 15 15 16 17 18 19 17 18 20 21 21 21 20 19 11 8 9 9 10 11 10 10 11 9 9 8 7 8 10 10 11
17 18 17 12 11 12 13 14 15 13 13 14 15 17 15 15 17 16 16 18 13 10 17 16 15 20 19 18 9 6 7 9 9 8 9 9 8 7 7 8 8 9 11
19 18 17 13 12 13 14 14 15 14 13 13 14 15 15 16 17 18 17 18 18 17 10 12 19 13 19 19 17 14 8 8 7 8 7 7 6 1 3 5 6 7 8
19 19 15 13 12 13 14 13 14 14 14 13 14 15 15 16 17 18 19 18 18 18 19 19 18 19 19 19 17 12 6 9 7 7 8 8 8 4 3 4 4 5 5
19 18 13 12 12 13 13 14 14 14 14 13 14 15 14 16 17 19 18 18 18 18 19 19 19 19 18 19 15 4 6 8 8 8 7 7 8 5 2 3 2 3 4
19 18 15 12 12 13 13 14 14 15 14 13 14 15 16 15 17 17 17 17 17 18 18 18 18 18 18 19 19 12 8 8 9 9 8 7 9 6 2 2 0 0 2
21 19 17 13 12 12 13 13 14 15 15 14 15 16 16 16 17 17 17 17 18 18 18 18 18 17 18 19 18 14 8 9 10 10 10 10 15 16 8 2 2 2 3
22 20 19 18 16 13 13 14 14 15 15 15 15 16 16 17 18 17 17 17 18 18 17 18 18 17 16 17 19 15 9 8 8 10 9 11 21 18 19 7 2 4 4
21 20 20 18 17 17 16 13 14 14 15 15 16 16 15 17 17 17 16 17 17 17 16 17 18 17 13 14 16 13 10 7 8 7 8 13 19 18 17 17 14 4 5
19 19 19 18 18 18 18 15 14 14 14 13 15 15 14 14 15 15 18 16 18 17 17 17 17 15 11 10 11 11 9 10 8 6 5 15 17 17 18 18 15 10 9
23 20 18 18 17 16 14 11 11 12 12 13 13 13 13 14 15 15 15 16 17 16 16 15 15 12 11 11 11 11 11 9 8 7 6 11 16 16 16 16 16 14 7
27 22 20 19 17 15 14 12 12 11 11 12 13 13 13 13 13 14 13 14 15 16 16 14 14 15 14 14 13 12 12 10 10 7 8 12 13 15 15 15 15 16 13
26 23 21 19 18 15 13 12 11 10 9 9 10 11 11 12 13 14 15 15 15 16 17 17 17 16 16 15 14 13 11 12 12 10 9 11 13 15 15 15 15 15 16
28 25 22 21 19 17 15 13 11 11 10 10 9 10 10 11 13 12 14 15 16 16 17 16 18 18 17 16 15 13 13 13 13 12 10 10 12 13 15 15 14 14 14
31 28 24 21 19 18 16 14 12 12 11 10 10 10 11 11 11 12 13 14 15 16 16 17 18 18 18 18 17 15 14 14 12 11 11 11 13 13 15 17 16 15 14
33 30 26 23 19 17 16 16 14 14 12 11 11 9 10 10 12 12 13 13 15 15 14 14 16 17 18 19 18 16 16 15 12 11 12 11 11 15 17 18 18 18 17
35 31 27 24 21 18 17 16 14 13 11 10 9 8 8 9 11 11 12 12 12 13 13 15 16 18 19 21 19 17 17 11 10 13 12 11 11 13 14 18 17 19 19
37 33 28 25 22 19 17 15 13 12 9 8 8 7 7 8 9 10 11 11 11 12 13 14 16 17 17 21 16 18 13 10 12 12 14 12 13 15 14 13 14 14 18
35 33 29 25 22 20 17 15 12 10 8 8 7 7 6 6 8 10 10 10 11 13 15 16 16 15 15 20 13 16 9 6 10 13 14 10 14 16 15 16 16 15 16
36 34 30 27 23 21 19 16 11 9 8 7 5 5 5 5 7 8 9 9 11 13 14 15 15 16 13 21 13 11 6 3 3 17 10 10 21 16 18 18 17 20 20
35 36 32 28 24 20 17 12 9 10 7 5 6 5 3 5 7 7 9 9 10 11 11 12 13 13 8 17 9 3 3 6 7 17 7 12 23 17 21 19 20 21 21
32 35 34 29 24 19 15 12 11 9 7 5 3 2 2 4 5 7 6 6 8 9 10 11 11 12 11 12 12 7 2 2 9 4 12 9 17 25 16 21 21 23 21
30 36 33 28 24 19 16 12 9 6 5 4 3 2 2 3 5 4 5 7 7 8 8 9 9 11 11 10 6 5 4 2 2 4 6 19 10 20 17 22 24 22 21
30 37 33 28 24 20 16 12 11 9 7 5 4 3 3 3 3 4 5 6 8 9 8 9 9 9 10 9 7 7 6 4 8 5 5 8 18 11 22 23 20 21 16
32 37 34 30 26 21 17 14 11 9 8 7 6 5 4 4 4 4 6 7 7 7 8 9 9 10 11 13 12 10 8 5 4 4 3 11 14 16 23 16 17 11 17
Wind_Direction
146 123 102 104 89 79 70 66 57 51 52 55 59 55 55 61 63 56 49 52 50 55 64 70 69 68 75 67 74 71 70 72 77 89 93 95 88 90 88 86 98 95 88
141 122 110 111 101 87 76 72 68 64 63 65 67 64 51 55 59 58 51 45 45 44 50 53 55 60 66 62 69 67 68 68 70 81 86 85 82 69 81 104 98 103 102
135 124 113 111 106 97 90 87 84 75 72 70 67 68 61 55 56 58 52 45 45 53 41 46 46 42 58 59 63 62 77 82 75 78 82 64 60 59 90 106 98 105 113
132 122 114 111 108 100 96 91 90 87 79 76 73 74 68 63 59 56 54 49 46 46 45 40 38 47 40 44 46 54 66 83 82 81 84 63 27 100 109 113 104 108 123
133 120 114 112 109 102 97 93 89 88 87 80 77 76 69 65 65 60 56 52 47 45 47 45 43 39 35 37 38 49 72 84 71 81 84 56 40 119 138 126 118 110 124
134 120 118 114 109 104 101 95 92 92 88 85 80 78 72 65 59 63 57 55 48 45 42 47 42 40 35 35 33 57 67 70 69 67 72 66 65 42 181 124 123 114 116
139 126 121 121 114 109 105 100 95 90 90 87 80 80 75 72 65 62 59 54 49 43 40 41 41 37 35 35 33 37 67 76 72 71 67 62 43 8 257 216 77 302 148
149 141 135 125 118 112 108 102 92 87 87 84 80 78 76 70 70 62 59 50 48 39 35 33 34 33 36 33 34 33 67 75 75 78 66 57 38 27 21 195 270 297 243
157 153 148 140 131 117 108 102 97 89 86 82 80 79 74 74 65 63 59 52 49 42 37 32 32 31 36 34 30 40 87 87 75 71 66 52 26 28 29 39 313 304 291
166 164 159 153 143 133 120 108 102 93 89 85 81 77 78 78 76 63 63 50 49 45 42 35 33 30 39 37 30 41 64 75 80 73 58 27 21 21 22 22 39 14 301
169 171 170 165 159 151 142 124 108 96 91 90 81 76 76 75 75 76 59 54 44 43 41 37 34 31 39 35 31 30 33 36 45 49 45 17 19 16 14 17 19 22 20
169 168 171 166 162 162 152 136 122 110 99 89 83 78 72 67 66 64 62 53 48 45 45 39 36 30 31 28 23 21 24 24 27 27 12 5 9 12 9 9 8 9 1
173 169 169 167 167 164 150 138 126 118 108 98 90 80 74 71 66 58 54 48 45 43 40 37 34 30 29 28 26 20 16 16 14 12 359 3 2 2 360 358 357 358 359
173 169 167 168 166 163 157 149 136 130 117 103 93 82 74 69 63 58 53 46 41 37 36 36 32 30 29 26 22 18 18 14 10 359 351 354 3 2 358 360 355 352 352
174 172 171 170 169 163 159 148 137 129 125 111 101 79 62 58 57 54 51 44 40 35 33 30 26 24 23 25 22 18 16 11 6 357 355 1 2 1 4 2 1 354 349
177 174 172 170 168 163 158 150 142 135 128 118 104 82 68 64 63 54 46 41 38 32 29 24 22 19 19 17 18 18 14 12 1 3 4 2 12 18 15 9 5 0 358
180 174 172 169 168 164 158 152 145 140 135 122 111 89 70 70 64 57 47 41 34 26 23 22 21 18 14 12 12 11 11 3 6 23 28 29 33 42 38 26 28 27 25
180 176 172 172 169 165 159 152 144 139 131 115 110 90 78 76 63 53 47 47 36 30 24 22 18 17 15 10 5 12 1 20 43 51 46 45 41 34 38 33 33 28 29
182 177 173 174 169 163 158 154 147 140 130 113 107 92 83 79 62 41 39 36 38 35 32 28 25 24 21 10 4 1 11 39 56 47 47 49 42 30 26 22 20 13 14
183 179 176 174 168 164 160 154 146 138 125 119 114 97 82 75 43 31 28 26 24 28 27 25 22 31 30 11 1 2 35 42 71 52 41 45 29 17 14 8 2 358 354
181 181 178 172 170 169 162 154 150 142 130 119 100 85 91 54 24 19 23 16 19 21 22 20 19 23 20 19 12 3 27 20 65 8 25 26 14 14 5 2 4 355 350
177 181 180 177 174 173 170 163 156 148 135 120 112 100 68 17 5 12 6 9 10 8 12 16 17 19 27 24 12 348 5 10 328 340 26 358 358 3 358 2 356 353 353
173 177 179 179 175 173 172 162 147 138 126 124 127 104 12 356 353 353 1 1 355 354 0 3 6 7 8 18 43 49 1 6 325 331 316 339 343 344 349 347 349 350 352
172 180 182 177 174 172 171 168 161 153 155 171 186 220 314 330 337 346 339 336 340 346 348 349 345 350 350 3 25 16 10 292 324 316 312 325 329 337 331 336 339 341 346
167 177 180 175 174 173 174 175 172 169 174 185 214 251 278 301 303 309 315 321 320 320 322 322 325 331 331 327 332 327 333 302 267 246 296 312 322 312 317 325 328 334 344
167 174 176 175 174 175 178 178 181 184 193 207 221 236 258 264 268 277 286 297 298 299 306 308 310 315 315 309 308 305 297 283 276 273 291 309 300 308 316 315 316 333 326